TimeCST,TemperatureF,Dew PointF,Humidity,Sea Level PressureIn,VisibilityMPH,Wind Direction,Wind SpeedMPH,Gust SpeedMPH,PrecipitationIn,Events,Conditions,WindDirDegrees,DateUTC
12:44 AM,26.6,19.4,74,30.43,10.0,Calm,Calm,-,N/A,,Scattered Clouds,0,2012-11-27 06:44:00
12:53 AM,26.1,18.0,71,30.45,9.0,Calm,Calm,-,N/A,,Partly Cloudy,0,2012-11-27 06:53:00
1:12 AM,26.6,19.4,74,30.41,9.0,South,4.6,-,N/A,,Mostly Cloudy,190,2012-11-27 07:12:00
1:53 AM,25.0,17.1,72,30.42,9.0,South,6.9,-,N/A,,Mostly Cloudy,180,2012-11-27 07:53:00
2:06 AM,24.8,17.6,74,30.38,9.0,South,5.8,-,N/A,,Scattered Clouds,170,2012-11-27 08:06:00
2:31 AM,23.0,17.6,80,30.39,8.0,SSW,6.9,-,N/A,,Mostly Cloudy,200,2012-11-27 08:31:00
2:53 AM,26.1,18.0,71,30.41,8.0,South,4.6,-,N/A,,Overcast,190,2012-11-27 08:53:00
3:53 AM,24.1,17.1,75,30.41,8.0,SSW,8.1,-,N/A,,Mostly Cloudy,200,2012-11-27 09:53:00
4:05 AM,23.0,17.6,80,30.37,8.0,SSW,8.1,-,N/A,,Scattered Clouds,210,2012-11-27 10:05:00
4:53 AM,21.9,17.1,82,30.38,7.0,South,9.2,-,N/A,,Clear,190,2012-11-27 10:53:00
5:53 AM,21.0,17.1,85,30.39,7.0,SSW,9.2,-,N/A,,Clear,210,2012-11-27 11:53:00
6:53 AM,21.9,17.1,82,30.39,7.0,SW,10.4,-,N/A,,Clear,220,2012-11-27 12:53:00
7:53 AM,23.0,19.0,85,30.38,5.0,SSW,12.7,-,N/A,,Clear,210,2012-11-27 13:53:00
8:53 AM,28.9,21.0,72,30.36,7.0,SW,17.3,-,N/A,,Clear,220,2012-11-27 14:53:00
9:53 AM,37.0,25.0,62,30.33,9.0,SW,19.6,-,N/A,,Clear,220,2012-11-27 15:53:00
10:53 AM,43.0,27.0,53,30.32,10.0,SW,23.0,28.8,N/A,,Clear,230,2012-11-27 16:53:00
11:53 AM,46.9,27.0,46,30.27,10.0,SW,16.1,24.2,N/A,,Clear,220,2012-11-27 17:53:00
12:53 PM,51.1,26.1,38,30.23,10.0,SW,15.0,23.0,N/A,,Clear,220,2012-11-27 18:53:00
1:53 PM,55.4,24.8,31,30.20,10.0,SSW,13.8,-,N/A,,Clear,200,2012-11-27 19:53:00
2:53 PM,57.0,24.1,28,30.17,10.0,SSW,13.8,-,N/A,,Clear,200,2012-11-27 20:53:00
3:53 PM,57.9,23.0,26,30.17,10.0,SSW,13.8,-,N/A,,Clear,210,2012-11-27 21:53:00
4:53 PM,55.0,23.0,29,30.18,10.0,SSW,10.4,-,N/A,,Clear,200,2012-11-27 22:53:00
5:53 PM,43.0,19.9,40,30.21,10.0,South,10.4,-,N/A,,Clear,190,2012-11-27 23:53:00
6:53 PM,37.0,19.0,48,30.23,10.0,North,-9999.0,-,N/A,,Clear,0,2012-11-28 00:53:00
7:53 PM,37.0,21.0,52,30.23,10.0,South,6.9,-,N/A,,Clear,180,2012-11-28 01:53:00
8:53 PM,37.0,19.0,48,30.22,10.0,South,8.1,-,N/A,,Clear,190,2012-11-28 02:53:00
9:53 PM,32.0,18.0,56,30.21,10.0,South,9.2,-,N/A,,Clear,190,2012-11-28 03:53:00
10:53 PM,30.9,19.0,61,30.21,10.0,West,8.1,-,N/A,,Clear,260,2012-11-28 04:53:00
11:53 PM,32.0,19.9,61,30.19,10.0,Calm,Calm,-,N/A,,Clear,0,2012-11-28 05:53:00